[[{"header":{"parameterUnit":"m.s-1","parameterCategory":1,"la1":30.2991,"la2":30.254,"lo1":-89.0895,"lo2":-89.0444,"dy":0.0017,"dx":0.0017,"nx":28,"ny":28,"refTime":"2025-12-31T09:00:00:Z","depth":0,"parameterNumber":2,"parameterNumberName":"U-component_of_WINDS"},"data":[0,0,0,0,0,0,0,0,0,0,0,0,0,0,0,0,0,0,0,0,0,0,0,0,0,0,0,0,0,0,0,0,0,0,0,0,0,0,0,0,0,0,0,0,0,0,0,0,0,0,0,0,0,0,0,0,0,0,4.1518,4.1519,0,4.1649,4.1651,4.1652,4.1596,4.1593,4.159,4.1587,4.1722,4.1728,4.1735,0,0,0,0,0,0,0,0,0,0,0,0,0,4.1218,4.1224,4.1517,4.1519,4.1521,4.1649,4.1651,4.1653,4.1596,4.1593,4.1589,4.1585,4.172,4.1728,4.1735,0,0,0,0,0,0,0,0,0,0,0,0,0,4.1349,4.1226,4.1517,4.1508,4.1509,4.1649,4.1651,4.1653,4.1597,4.1592,4.1588,4.1583,4.1717,4.1727,4.1737,4.1893,0,0,4.1767,4.1771,0,0,0,0,0,0,0,0,4.1341,4.136,4.1508,4.1509,4.151,4.1601,4.1595,4.1734,4.1598,4.1564,4.1586,4.1581,4.1686,4.1698,4.1733,4.1899,4.1905,4.1768,4.1774,4.1778,4.1781,0,0,0,0,0,0,0,4.1332,4.1354,4.157,4.151,4.1511,4.1498,4.1511,4.1621,4.165,4.1566,4.1563,4.1579,4.1685,4.1724,4.1736,4.1907,4.1767,4.1776,4.1782,4.1786,4.2207,4.2212,0,0,0,0,0,0,4.1323,4.1347,4.1565,4.1573,4.1412,4.1507,4.1522,4.1577,4.1649,4.1655,4.1583,4.1576,4.1709,4.1724,4.174,4.1927,4.1778,4.1787,4.1793,4.2202,4.2208,4.2214,0,0,0,0,0,0,4.1317,4.1343,4.156,4.1459,4.1486,4.1517,4.1579,4.1582,4.162,4.1661,4.1666,4.1617,4.1706,4.1726,4.1855,4.1931,4.1791,4.18,4.2196,4.2204,4.2211,4.2302,0,0,0,0,0,0,4.1309,4.1341,4.1401,4.1461,4.1491,4.1673,4.1584,4.1588,4.1637,4.1629,4.1694,4.17,4.1704,4.1841,4.1865,4.1942,4.1808,4.2189,4.2199,4.2209,4.2292,4.2312,4.2329,0,0,0,0,0,4.1298,4.1422,4.1404,4.1431,4.1567,4.1677,4.1695,4.1696,4.1644,4.1704,4.173,4.1698,4.1919,4.1854,4.1881,4.1962,4.2184,4.2197,4.2208,4.2284,4.2308,4.2328,0,0,0,0,0,0,4.137,4.1429,4.1411,4.1557,4.1613,4.1667,4.1743,4.1722,4.1793,4.1783,4.1782,4.1797,4.193,4.1959,4.1886,4.2117,4.2044,4.2061,4.2092,4.2116,4.2133,4.2123,4.1816,0,0,0,0,0,4.1403,4.1488,4.1535,4.166,4.1689,4.1712,4.176,4.1756,4.1814,4.1837,4.1872,4.1929,4.2011,4.2065,4.2143,4.2297,4.231,4.2366,4.2384,4.2399,4.2414,4.2496,4.2521,4.2253,4.2253,4.2253,0,0,4.1472,4.1515,4.1569,4.1676,4.1718,4.1806,4.1732,4.1828,4.1893,4.1851,4.1974,4.2003,4.2066,4.2208,4.2272,4.2236,4.2491,4.2414,4.2426,4.2432,4.2511,4.2536,4.2558,4.2261,4.226,4.2258,0,0,4.1642,4.1684,4.1791,4.1835,4.19,4.1915,4.1941,4.1999,4.2016,4.214,4.211,4.2188,4.233,4.2376,4.2418,4.2605,4.2578,4.2631,4.2725,4.2805,4.2826,4.2845,4.291,4.2934,4.2646,4.2646,4.2646,0,4.1719,4.185,4.185,4.1948,4.1995,4.1962,4.2071,4.2114,4.2202,4.2235,4.2194,4.2371,4.2411,4.2562,4.2608,4.2644,4.2673,4.2622,4.2823,4.2842,4.286,4.2922,4.2946,4.2652,4.2651,4.2651,4.265,0,4.1941,4.2032,4.2112,4.2196,4.2253,4.2356,4.2371,4.2429,4.2421,4.2439,4.2565,4.2613,4.2699,4.2735,4.2729,4.2886,4.2861,4.2823,4.2748,4.2891,4.2949,4.2973,4.266,4.2658,4.2657,4.2655,0,0,4.2159,4.2242,4.2271,4.2308,4.2377,4.2448,4.255,4.2634,4.2682,4.2744,4.2829,4.295,4.2914,4.2961,4.296,4.303,4.3174,4.2983,4.2984,4.3015,4.3348,4.3375,4.3402,4.3157,4.3162,4.3165,4.3341,0,4.2332,4.2509,4.2512,4.2675,4.2759,4.2729,4.2817,4.2869,4.289,4.2964,4.2986,4.3071,4.3018,4.3047,4.3115,4.3142,4.324,4.3129,4.3235,4.3238,4.3217,4.3433,4.3462,4.3626,4.3364,4.3368,4.3371,0,4.2558,4.2626,4.2797,4.2853,4.2888,4.2968,4.3044,4.3116,4.3174,4.3184,4.3238,4.3225,4.3329,4.3253,4.3395,4.332,4.3363,4.3383,4.3389,4.3397,4.3312,4.3445,4.3679,4.3702,4.3407,4.3405,4.3402,0,4.2697,4.2832,4.2951,4.2984,4.3054,4.311,4.3141,4.3195,4.3245,4.3313,4.3345,4.3424,4.3467,4.3529,4.3538,4.3483,4.368,4.3606,4.369,4.369,4.3731,4.3728,4.3973,4.3763,4.3763,4.3762,4.3762,0,4.2889,4.2994,4.3014,4.3087,4.3204,4.3207,4.3323,4.335,4.3398,4.3476,4.3456,4.3529,4.3538,4.3614,4.3622,4.3737,4.3757,4.3768,4.3768,4.3768,4.3767,4.3795,4.3783,4.3769,4.3768,4.3766,4.3765,0,4.3063,4.3081,4.3208,4.3264,4.328,4.3364,4.3411,4.3481,4.3499,4.3598,4.3621,4.365,4.3738,4.3754,4.3859,4.3864,4.4001,4.3991,4.3981,4.3979,4.4062,4.4053,4.4332,4.4367,4.4136,4.4139,4.4141,0,4.3183,4.3263,4.3327,4.3377,4.3411,4.3493,4.3544,4.355,4.3604,4.3676,4.3737,4.3824,4.3892,4.4035,4.4065,4.4145,4.4135,4.4227,4.4147,4.4144,4.4134,4.4128,4.4135,4.4242,4.4245,4.4247,4.4248,0,4.3394,4.3399,4.3473,4.355,4.3611,4.3672,4.373,4.3773,4.3786,4.3848,4.3937,4.3991,4.4097,4.4182,4.4261,4.4294,4.4273,4.4274,4.4297,4.4297,4.4287,4.4291,4.4021,4.4267,4.4265,4.4264,4.4263,4.4262,4.3544,4.3613,4.3668,4.3751,4.3795,4.385,4.3917,4.3944,4.4019,4.4105,4.4105,4.4203,4.4259,4.4363,4.44,4.4477,4.4447,4.4482,4.449,4.4498,4.4504,4.4276,4.4492,4.4491,4.4491,4.449,4.449,0,4.3752,4.3786,4.3862,4.3943,4.4008,4.3984,4.4046,4.4102,4.4188,4.4242,4.431,4.4413,4.4496,4.4533,4.4614,4.4668,4.4661,4.4689,4.4684,4.4691,4.4527,4.4498,4.4693,4.4693,4.4693,4.4693,4.4693,4.4693,4.3867,4.3983,4.3994,4.4131,4.4164,4.4259,4.4297,4.4347,4.439,4.4505,4.4573,4.4597,4.4644,4.4728,4.4803,4.4812,4.4842,4.4874,4.4878,4.4724,4.4703,4.4683,4.4655,4.4881,4.4881,4.5036,4.5037,4.5038]},{"header":{"parameterUnit":"m.s-1","parameterCategory":1,"la1":30.2991,"la2":30.254,"lo1":-89.0895,"lo2":-89.0444,"dy":0.0017,"dx":0.0017,"nx":28,"ny":28,"refTime":"2025-12-31T09:00:00:Z","depth":0,"parameterNumber":3,"parameterNumberName":"V-component_of_WINDS"},"data":[0,0,0,0,0,0,0,0,0,0,0,0,0,0,0,0,0,0,0,0,0,0,0,0,0,0,0,0,0,0,0,0,0,0,0,0,0,0,0,0,0,0,0,0,0,0,0,0,0,0,0,0,0,0,0,0,0,0,0.4024,0.4024,0,0.4085,0.4086,0.4086,0.4119,0.4119,0.4119,0.412,0.4182,0.4183,0.4185,0,0,0,0,0,0,0,0,0,0,0,0,0,0.3935,0.3936,0.4024,0.4025,0.4025,0.4085,0.4086,0.4086,0.4119,0.4119,0.4119,0.412,0.4181,0.4183,0.4185,0,0,0,0,0,0,0,0,0,0,0,0,0,0.3982,0.3937,0.4024,0.4049,0.4052,0.4085,0.4086,0.4087,0.4119,0.4119,0.412,0.412,0.4181,0.4183,0.4185,0.4198,0,0,0.4192,0.4193,0,0,0,0,0,0,0,0,0.3979,0.3985,0.4044,0.4047,0.405,0.4095,0.4077,0.4124,0.4119,0.4094,0.412,0.412,0.4153,0.4157,0.4168,0.42,0.4203,0.4193,0.4194,0.4195,0.4196,0,0,0,0,0,0,0,0.3976,0.3983,0.4048,0.4045,0.4049,0.4057,0.4064,0.4086,0.4122,0.4096,0.4098,0.4105,0.4154,0.4166,0.417,0.4204,0.4193,0.4195,0.4196,0.4197,0.4248,0.4248,0,0,0,0,0,0,0.3969,0.398,0.4046,0.405,0.4015,0.4058,0.4066,0.408,0.4122,0.4128,0.4105,0.4107,0.4162,0.4167,0.4172,0.4189,0.4195,0.4197,0.4199,0.4248,0.4248,0.4248,0,0,0,0,0,0,0.3967,0.3974,0.4044,0.4016,0.4025,0.406,0.4075,0.4081,0.4093,0.4128,0.4135,0.4111,0.4162,0.4169,0.4191,0.4192,0.4198,0.4201,0.4248,0.4248,0.4248,0.4223,0,0,0,0,0,0,0.3964,0.3974,0.3979,0.4016,0.4026,0.4061,0.4076,0.4083,0.4097,0.41,0.4135,0.4141,0.4163,0.4187,0.4193,0.4195,0.4202,0.4248,0.4248,0.4248,0.4224,0.4222,0.4221,0,0,0,0,0,0.3961,0.3969,0.3979,0.3987,0.4034,0.4061,0.4067,0.4092,0.4097,0.4103,0.4125,0.414,0.4191,0.4189,0.4196,0.4199,0.4248,0.4248,0.4248,0.4225,0.4222,0.4221,0,0,0,0,0,0,0.3932,0.3975,0.3986,0.4007,0.403,0.4067,0.4075,0.4089,0.4111,0.4113,0.4142,0.415,0.4169,0.4186,0.4184,0.4213,0.4221,0.4222,0.4201,0.4199,0.4197,0.4193,0.4204,0,0,0,0,0,0.3928,0.3947,0.3983,0.3998,0.4009,0.404,0.4053,0.4069,0.4095,0.4105,0.4129,0.4153,0.4174,0.4187,0.4209,0.4226,0.4234,0.4232,0.423,0.4228,0.4229,0.4239,0.4238,0.4248,0.4248,0.4248,0,0,0.3921,0.3946,0.3956,0.3993,0.4013,0.4032,0.4048,0.4067,0.4081,0.4108,0.413,0.4148,0.4177,0.4196,0.4206,0.4211,0.4228,0.4228,0.4227,0.4228,0.4239,0.4238,0.4237,0.4248,0.4248,0.4248,0,0,0.3916,0.3937,0.3952,0.3971,0.4002,0.4022,0.4025,0.4059,0.4072,0.4095,0.4115,0.4132,0.4168,0.4187,0.4202,0.4203,0.4217,0.4209,0.42,0.4209,0.4209,0.4208,0.4208,0.4208,0.4209,0.4209,0.4209,0,0.3902,0.3932,0.3957,0.3975,0.399,0.4015,0.403,0.4048,0.4083,0.4093,0.4098,0.4143,0.4164,0.4188,0.4188,0.4199,0.4204,0.4205,0.4207,0.4206,0.4206,0.4207,0.4207,0.4208,0.4208,0.4208,0.4209,0,0.3913,0.3933,0.3941,0.3975,0.3991,0.4007,0.4034,0.4048,0.4063,0.4082,0.4104,0.413,0.4156,0.4163,0.4178,0.4189,0.4191,0.4201,0.421,0.4204,0.4205,0.4205,0.4206,0.4207,0.4207,0.4208,0,0,0.3893,0.394,0.3943,0.3958,0.3992,0.4008,0.4025,0.4051,0.4061,0.4085,0.4099,0.4128,0.4137,0.4154,0.4171,0.4179,0.4178,0.4188,0.4189,0.4185,0.4191,0.4183,0.4183,0.4187,0.4187,0.4187,0.4188,0,0.3894,0.3925,0.3948,0.3971,0.3989,0.4012,0.4027,0.4049,0.4067,0.4085,0.4105,0.4125,0.4136,0.4146,0.4155,0.4176,0.4179,0.4176,0.4201,0.4201,0.4193,0.4184,0.4176,0.4175,0.4189,0.4189,0.4189,0,0.3899,0.3921,0.3945,0.3977,0.3986,0.3998,0.4024,0.404,0.4066,0.4078,0.4096,0.4113,0.4131,0.4138,0.4163,0.4161,0.4172,0.4184,0.4184,0.4188,0.4195,0.4187,0.4176,0.4176,0.419,0.419,0.419,0,0.3881,0.3917,0.3937,0.3949,0.3987,0.3995,0.4011,0.4036,0.405,0.4072,0.4081,0.4105,0.4118,0.4135,0.4159,0.4162,0.4181,0.419,0.4191,0.4191,0.4195,0.4194,0.4186,0.4202,0.4202,0.4202,0.4202,0,0.3879,0.3893,0.3929,0.3941,0.3957,0.3983,0.3998,0.4016,0.4038,0.4053,0.4075,0.4088,0.4118,0.4135,0.4153,0.4171,0.4176,0.4186,0.4191,0.4185,0.4183,0.4193,0.4193,0.4202,0.4202,0.4202,0.4202,0,0.3863,0.3888,0.391,0.3944,0.3952,0.3963,0.3991,0.4003,0.4022,0.4041,0.4047,0.4076,0.4097,0.4122,0.4151,0.4163,0.4179,0.4186,0.417,0.4173,0.4173,0.4173,0.417,0.4171,0.4186,0.4186,0.4186,0,0.386,0.3872,0.3906,0.3918,0.3933,0.3952,0.3966,0.3992,0.4006,0.4035,0.4043,0.4066,0.4085,0.4118,0.4141,0.4164,0.4171,0.4169,0.4175,0.4167,0.4171,0.417,0.4171,0.4167,0.4167,0.4167,0.4166,0,0.3853,0.3864,0.3884,0.3908,0.3924,0.3944,0.3965,0.3973,0.4003,0.4017,0.4039,0.4054,0.4083,0.4105,0.413,0.4146,0.4161,0.4164,0.4166,0.4159,0.415,0.4155,0.4166,0.4164,0.4165,0.4165,0.4165,0.4165,0.3843,0.3854,0.388,0.3901,0.3919,0.3938,0.3951,0.3971,0.3989,0.4016,0.4029,0.4051,0.4075,0.411,0.4125,0.4142,0.4147,0.4149,0.415,0.415,0.4148,0.4147,0.4146,0.4146,0.4146,0.4147,0.4147,0,0.3837,0.3854,0.3873,0.3902,0.3918,0.393,0.3954,0.3966,0.3985,0.4006,0.4025,0.405,0.4071,0.4096,0.4118,0.4127,0.4134,0.4132,0.4131,0.4135,0.4142,0.4138,0.4125,0.4125,0.4125,0.4125,0.4125,0.4125,0.3835,0.3854,0.3868,0.3896,0.3913,0.3935,0.3947,0.3964,0.3981,0.4007,0.4025,0.4041,0.4064,0.4088,0.4108,0.4114,0.4121,0.4117,0.4126,0.4132,0.4134,0.4136,0.4133,0.4119,0.4119,0.4117,0.4117,0.4117]}]]